Charleston, WV

2:31 AM EST on December 10, 2019 (GMT -0500)
Yeager Airport

Weather History for KCRW - June, 2019

Change the Weather History Date:

Wednesday, June 12, 2019

  Actual Average Record
Temperature  
Mean Temperature 65 °F 71 °F  
Max Temperature 78 °F 82 °F 96 °F (1984)
Min Temperature 52 °F 61 °F 39 °F (1972)
Degree Days  
Heating Degree Days 0 0  
Month to date heating degree days 2 10  
Since 1 June heating degree days 2 10  
Since 1 July heating degree days 4146 4475  
Cooling Degree Days 0 7  
Month to date cooling degree days 52 66  
Year to date cooling degree days 248 176  
Since 1 June cooling degree days 52 66  
Growing Degree Days 15 (Base 50)    
Moisture  
Dew Point 53 °F    
Average Humidity 71    
Maximum Humidity 100    
Minimum Humidity 41    
Precipitation  
Precipitation 0.02 in 0.14 in 1.28 in (1960)
Month to date precipitation 1.23 1.80  
Year to date precipitation 23.46 19.94  
Sea Level Pressure  
Sea Level Pressure 29.98 in    
Wind  
Wind Speed 5 mph (SE)    
Max Wind Speed 16 mph    
Max Gust Speed 22 mph    
Visibility 10 miles    
Events Rain    
T = Trace of Precipitation, MM = Missing Value Source: NWS Daily Summary

Daily Weather History Graph

Daily Weather History Graph

Search for Another Location

Airport or City:

Astronomy

Jun. 12, 2019 Rise Set
Actual Time 6:02 AM EDT 8:50 PM EDT
Civil Twilight 5:30 AM EDT 9:22 PM EDT
Nautical Twilight 4:50 AM EDT 10:01 PM EDT
Astronomical Twilight 4:05 AM EDT 10:46 PM EDT
Moon 4:00 PM EDT (6/12) 3:11 AM EDT (6/12)
Length of Visible Light 15h 51m
Length of Day
14h 48m
Waxing Gibbous, 76% of the Moon is Illuminated
Jun 12
Waxing Gibbous
Jun 17
Full
Jun 25
Last Quarter
Jul 2
New
Jul 9
First Quarter

Hourly Weather History & Observations

Time (EDT) Temp. Dew Point Humidity Pressure Visibility Wind Dir Wind Speed Gust Speed Precip Events Conditions
12:54 AM 57.0 °F 54.0 °F 89% 30.12 in 10.0 mi Calm Calm - N/A   Partly Cloudy
1:54 AM 55.9 °F 55.0 °F 97% 30.10 in 10.0 mi Calm Calm - N/A   Partly Cloudy
2:54 AM 55.0 °F 54.0 °F 96% 30.09 in 10.0 mi Calm Calm - N/A   Partly Cloudy
3:54 AM 54.0 °F 52.0 °F 93% 30.09 in 10.0 mi Calm Calm - N/A   Partly Cloudy
4:54 AM 53.1 °F 52.0 °F 96% 30.09 in 4.0 mi NE 4.6 mph - N/A   Scattered Clouds
5:54 AM 53.1 °F 51.1 °F 93% 30.09 in 10.0 mi NE 5.8 mph - N/A   Scattered Clouds
6:54 AM 54.0 °F 52.0 °F 93% 30.09 in 10.0 mi NNE 3.5 mph - N/A   Scattered Clouds
7:54 AM 55.9 °F 52.0 °F 87% 30.08 in 10.0 mi ENE 6.9 mph - N/A   Scattered Clouds
8:54 AM 62.1 °F 54.0 °F 75% 30.07 in 10.0 mi ENE 5.8 mph - N/A   Scattered Clouds
9:54 AM 68.0 °F 54.0 °F 61% 30.04 in 10.0 mi Variable 5.8 mph - N/A   Scattered Clouds
10:54 AM 71.1 °F 51.1 °F 49% 30.02 in 10.0 mi SE 8.1 mph 21.9 mph N/A   Scattered Clouds
11:54 AM 73.9 °F 51.1 °F 45% 30.00 in 10.0 mi SSE 9.2 mph 17.3 mph N/A   Scattered Clouds
12:54 PM 75.9 °F 50.0 °F 40% 29.99 in 10.0 mi South 11.5 mph - N/A   Scattered Clouds
1:54 PM 75.0 °F 51.1 °F 43% 29.98 in 10.0 mi SE 11.5 mph 19.6 mph N/A   Mostly Cloudy
2:54 PM 75.9 °F 54.0 °F 46% 29.96 in 10.0 mi SE 3.5 mph - N/A   Mostly Cloudy
3:54 PM 77.0 °F 53.1 °F 43% 29.94 in 10.0 mi SSE 10.4 mph - N/A   Mostly Cloudy
4:54 PM 73.9 °F 54.0 °F 50% 29.91 in 10.0 mi SE 5.8 mph - N/A   Mostly Cloudy
5:54 PM 72.0 °F 54.0 °F 53% 29.90 in 10.0 mi South 9.2 mph - 0.00 in   Mostly Cloudy
6:54 PM 70.0 °F 55.0 °F 59% 29.88 in 10.0 mi SSE 3.5 mph - N/A   Mostly Cloudy
7:54 PM 69.1 °F 55.9 °F 63% 29.86 in 10.0 mi Calm Calm - N/A   Mostly Cloudy
8:54 PM 69.1 °F 53.1 °F 57% 29.84 in 10.0 mi ESE 3.5 mph - N/A   Overcast
9:54 PM 68.0 °F 55.0 °F 63% 29.84 in 10.0 mi Variable 3.5 mph - N/A   Mostly Cloudy
10:54 PM 69.1 °F 51.1 °F 53% 29.83 in 10.0 mi South 8.1 mph - N/A   Mostly Cloudy
11:54 PM 68.0 °F 50.0 °F 52% 29.83 in 10.0 mi SSE 8.1 mph - 0.00 in Rain Light Rain